Wind_Speed
19 18 18 17 17 16 15 14 14 13 13 12 11 10 10 9 9 9 8 8 8 8 6 6 7 9 11 11 9 7 6 5 4 4 5 8 10 11 12 11 11 11 8 8 7 6 6 6 5 4 4 4 5 6 7 7 7 5 1 4 4 5 7 7 6 8 11 11 11 11 10 10 11 12 12 13 12 14 17 18 18 18 14 13 12 12 12 11
19 19 19 18 18 17 17 16 15 14 13 13 12 11 10 10 9 9 8 8 8 8 7 6 7 9 11 11 9 7 6 5 5 6 7 9 11 12 12 11 12 12 11 9 8 8 8 7 6 6 5 4 5 6 7 8 8 7 4 3 4 6 8 8 7 8 10 9 9 11 11 12 12 13 13 13 13 16 18 19 18 17 15 13 12 12 12 12
19 19 19 18 18 18 18 17 16 15 14 13 13 11 10 10 9 9 8 8 8 8 8 7 8 9 11 11 9 8 7 5 6 8 8 10 11 12 13 13 13 14 13 11 10 10 9 8 6 6 6 4 5 6 7 8 8 9 6 4 5 7 8 8 8 9 10 8 8 10 12 12 13 14 15 15 16 17 19 19 18 17 14 13 13 13 12 13
18 18 18 18 18 18 17 17 17 16 15 14 13 12 11 10 10 9 9 8 8 8 9 8 8 9 11 12 9 8 7 5 7 9 10 11 12 13 14 15 15 14 13 12 13 12 10 7 6 5 6 5 6 7 7 8 8 10 8 6 7 8 8 8 9 10 8 6 8 10 12 13 13 14 16 17 18 20 20 18 16 14 12 12 12 12 13 14
18 18 18 17 17 17 17 17 17 16 16 15 14 13 12 10 10 10 9 9 8 9 10 9 9 10 12 12 10 10 6 3 8 10 10 11 13 14 16 16 15 13 11 13 14 11 9 7 6 5 6 4 5 6 6 8 9 10 9 9 10 10 8 8 9 10 8 5 7 9 11 13 14 15 16 19 20 22 22 18 15 13 10 10 9 9 13 15
18 18 17 17 17 16 16 16 16 16 16 16 15 14 12 11 10 10 10 9 9 9 10 11 10 10 13 13 11 12 9 6 9 10 10 12 14 16 17 17 14 12 12 15 14 11 8 6 5 4 6 5 3 3 5 8 11 10 9 10 10 12 9 7 9 9 8 5 6 9 11 14 16 18 18 20 22 23 22 18 16 14 12 11 8 8 12 14
19 18 18 17 17 16 15 15 15 15 16 16 16 14 13 12 11 11 11 10 10 10 11 12 10 11 14 14 13 14 12 9 11 11 11 14 15 17 17 16 13 13 14 15 13 10 7 5 4 2 4 4 4 3 5 8 11 13 10 10 11 12 11 8 9 8 8 3 6 9 11 15 17 19 20 23 25 24 22 18 16 15 13 12 10 11 14 13
19 19 18 18 17 16 16 15 14 15 15 16 16 15 14 13 12 12 11 11 10 10 12 13 12 12 15 15 14 14 12 10 11 12 13 14 15 16 16 14 13 14 15 15 12 9 7 4 2 2 3 2 3 5 7 7 9 14 10 10 12 11 10 8 9 9 7 3 5 9 12 14 17 21 23 26 25 22 20 17 17 15 12 13 13 15 16 15
20 19 19 18 17 17 16 15 14 14 14 15 16 15 14 13 13 12 12 12 11 11 12 13 13 13 16 16 15 14 13 12 12 13 14 14 14 14 14 13 13 15 15 15 12 9 8 4 2 1 1 2 4 5 7 8 7 11 10 10 11 10 9 7 7 10 7 6 6 10 13 14 18 23 26 26 22 20 19 16 16 14 13 14 16 17 17 16
20 19 19 18 18 17 17 16 15 14 14 14 15 16 15 14 14 13 13 13 12 12 13 14 14 13 17 18 16 14 14 14 14 14 15 13 12 13 14 14 13 15 15 13 10 8 7 4 4 4 4 4 5 5 7 8 7 10 11 11 12 10 9 8 7 8 7 7 6 8 13 17 22 24 25 25 22 20 19 17 16 15 13 14 17 18 18 17
19 19 19 18 18 18 17 17 16 15 14 13 14 15 15 14 14 14 14 13 13 13 13 15 15 15 18 19 19 17 16 16 15 16 16 14 14 13 14 14 13 14 14 12 10 9 7 5 5 3 3 4 5 7 7 7 7 10 12 11 13 12 10 9 8 6 6 6 7 12 16 18 21 22 22 24 23 20 18 17 16 15 14 13 16 19 20 19
18 19 19 19 18 18 18 17 17 16 14 13 13 15 15 14 15 15 14 14 14 14 14 15 16 16 18 20 21 20 18 17 17 18 17 16 16 15 13 14 14 12 12 12 11 10 7 6 6 4 3 4 4 6 6 8 9 11 12 9 9 11 11 10 9 6 6 6 10 17 18 15 15 17 20 21 20 16 16 16 15 15 14 13 16 19 20 20
18 18 18 19 18 18 18 18 18 17 16 14 13 14 15 15 15 15 15 15 15 15 14 16 17 17 19 22 23 21 19 18 19 19 19 18 18 17 15 15 15 13 13 14 13 11 9 8 8 5 5 5 4 4 3 9 12 10 11 9 5 8 11 11 9 5 6 10 14 17 14 11 11 13 16 17 16 15 15 16 15 15 15 15 16 18 20 20
17 17 18 18 18 19 19 19 18 18 17 15 14 13 15 15 15 16 16 16 16 16 15 16 18 18 19 23 24 23 21 19 19 20 20 19 18 19 17 16 16 15 15 16 15 13 10 8 7 5 5 6 6 4 4 8 10 8 9 9 7 8 13 14 10 6 8 14 16 15 12 9 9 11 12 13 13 13 15 15 15 15 15 16 17 18 20 19
17 17 17 18 18 19 19 19 19 18 17 16 15 14 14 15 15 16 17 16 16 16 16 16 18 19 19 22 24 24 22 20 20 21 21 19 18 18 18 16 15 15 15 15 15 12 10 7 5 5 6 6 6 5 6 7 6 5 8 10 11 10 12 14 11 7 8 14 14 12 12 9 8 10 10 10 10 11 13 15 16 15 15 16 17 18 20 19
17 17 17 17 18 18 19 19 19 18 18 17 16 15 14 14 15 17 17 17 17 16 16 16 17 19 19 21 25 25 23 22 21 22 23 21 19 18 17 16 15 14 14 14 13 12 9 7 6 6 7 6 5 8 9 6 2 3 8 10 12 12 10 12 9 7 10 13 10 6 8 7 7 9 9 9 9 9 11 15 17 16 16 16 17 18 20 20
17 16 16 16 17 18 18 19 19 18 18 18 17 16 14 14 15 17 18 18 17 17 17 16 17 19 19 20 24 26 25 23 22 22 23 23 21 19 18 16 15 14 13 12 12 12 10 8 7 6 6 6 5 8 9 4 5 6 9 10 11 12 9 9 7 6 12 11 7 4 5 5 5 7 9 9 9 9 11 14 18 17 17 17 17 18 19 21
16 16 16 16 16 16 17 18 17 17 18 18 18 17 15 13 15 18 19 19 18 17 16 16 18 17 16 19 24 27 27 25 24 23 23 24 23 21 19 18 16 14 13 12 11 11 10 8 7 7 7 8 7 7 7 6 8 9 11 10 10 11 10 9 6 5 11 9 7 8 6 5 6 6 7 9 10 10 11 14 18 18 18 18 19 19 19 20
16 15 16 16 15 15 16 16 16 16 18 18 18 17 15 13 15 17 19 19 19 18 15 16 19 16 12 18 25 28 28 26 25 24 24 25 25 23 22 20 18 16 14 12 11 12 10 8 8 8 7 6 6 6 6 7 9 11 11 10 10 10 9 7 6 5 8 9 8 9 8 6 7 7 7 9 10 11 11 14 18 20 20 20 20 20 20 21
15 14 15 15 15 15 14 14 15 16 17 17 18 17 15 14 13 15 19 20 19 19 17 15 19 20 16 17 24 28 28 27 26 25 25 25 25 25 24 22 20 18 17 12 10 12 11 10 11 10 6 4 5 6 7 9 10 11 11 9 9 8 8 6 5 5 3 8 8 9 10 9 10 10 9 10 11 11 12 14 17 20 22 22 22 22 22 22
15 13 14 14 15 15 13 13 13 15 16 17 17 16 16 14 12 14 18 18 18 19 19 16 16 21 20 17 21 27 29 28 27 27 26 25 25 25 25 24 22 19 19 15 10 13 13 12 13 10 8 7 6 7 8 9 10 10 10 8 7 7 8 7 5 5 1 5 6 8 11 13 13 13 13 13 12 12 12 14 17 20 22 23 24 24 23 23
15 14 13 13 14 14 12 11 11 13 15 15 16 16 16 14 13 14 15 16 19 19 19 18 16 18 21 19 20 26 30 29 29 28 27 27 26 24 24 25 23 18 17 17 13 13 14 13 12 9 8 9 8 9 10 10 10 9 8 7 6 8 8 7 8 8 2 3 4 7 9 11 13 14 15 16 15 13 13 14 15 18 21 23 24 25 25 24
16 14 13 12 13 12 10 9 9 11 14 14 15 15 15 13 12 13 13 14 16 18 20 20 18 17 19 20 19 24 29 30 30 30 29 28 27 25 24 24 22 17 16 19 17 13 12 10 9 9 9 8 7 8 8 9 8 6 6 6 7 9 9 7 10 9 3 4 5 8 7 8 12 15 17 18 18 15 15 15 14 16 19 21 23 25 26 26
16 14 12 11 11 10 8 7 8 11 13 13 13 14 13 12 11 11 13 13 14 17 19 19 20 18 19 21 21 21 27 31 31 31 31 29 27 26 25 23 20 17 17 19 18 16 13 9 8 7 5 5 5 6 7 7 6 4 4 7 8 10 9 8 9 7 1 4 6 6 6 8 12 14 17 20 20 18 16 16 16 16 18 20 22 24 26 27
14 12 10 10 10 8 6 6 8 10 11 11 12 13 12 11 10 10 11 10 11 15 17 18 19 19 20 22 22 21 26 31 33 32 32 29 27 26 24 21 20 18 17 18 17 18 16 13 12 10 8 7 7 9 7 6 5 3 2 7 10 10 9 8 8 4 2 4 5 6 5 6 8 11 15 18 21 19 17 18 18 18 19 21 23 25 26 28
13 10 9 9 9 6 5 6 8 9 10 11 12 12 11 10 10 10 9 7 7 11 15 18 17 18 22 23 23 24 23 27 34 33 31 30 27 24 22 21 21 17 15 16 16 18 18 15 17 17 13 12 10 10 7 5 6 3 2 8 12 11 7 5 4 2 2 2 3 5 4 3 5 9 13 16 19 18 19 21 21 21 22 23 24 26 27 28
14 11 9 9 8 6 5 6 8 9 9 11 11 11 11 10 9 9 8 6 7 9 12 16 18 18 23 25 24 23 16 20 32 34 31 30 29 27 22 19 21 19 16 15 14 16 17 16 18 18 14 12 11 8 4 5 7 5 4 9 11 10 7 3 3 4 4 4 4 6 5 5 5 8 12 15 16 17 20 22 24 24 24 24 25 26 27 28
15 12 10 9 7 5 5 6 8 9 10 10 10 11 11 10 10 11 7 4 6 8 9 14 19 19 22 25 25 22 15 14 24 31 34 31 29 29 24 18 19 19 19 19 15 12 12 11 11 12 12 12 11 8 5 6 9 6 7 9 9 9 6 3 4 5 4 5 5 6 6 6 4 8 10 13 16 18 21 23 25 26 26 25 26 27 27 28
16 13 10 7 5 3 4 6 8 9 10 10 10 11 10 10 11 9 6 2 6 7 6 9 16 18 20 23 24 24 18 13 15 23 33 33 30 29 24 19 17 15 18 21 18 14 9 8 10 10 9 9 8 7 6 7 7 6 8 8 8 8 6 5 6 5 5 5 3 3 6 6 3 8 10 12 15 18 20 22 24 26 26 27 27 27 28 28
15 14 10 5 2 1 4 7 9 10 10 10 11 10 11 11 10 7 6 3 6 4 5 9 13 15 20 23 25 26 19 15 14 18 28 33 32 32 27 23 19 14 15 18 20 19 13 12 15 13 10 9 8 7 6 7 7 7 8 8 9 8 5 6 5 4 6 4 1 2 4 6 2 7 8 10 11 12 16 19 22 24 26 28 28 29 29 29
13 12 10 5 1 2 6 9 10 10 10 11 11 11 11 11 7 5 4 6 6 3 4 9 11 12 19 22 24 26 20 15 16 17 25 31 30 30 27 22 21 17 15 16 19 20 19 19 18 16 15 13 11 11 10 8 8 6 6 7 9 7 5 5 4 4 5 2 3 3 2 6 4 4 6 6 6 7 11 17 21 23 25 27 28 30 31 31
12 10 9 5 1 4 7 9 10 10 11 11 11 12 10 8 6 2 3 6 4 4 6 7 8 9 15 18 20 24 21 15 15 16 22 29 27 28 27 21 20 19 17 18 17 16 18 21 19 17 18 16 12 11 11 10 8 7 6 6 6 4 3 4 4 3 3 3 3 3 2 5 7 3 2 4 5 7 10 13 17 20 22 25 27 29 31 31
12 9 8 5 1 5 7 9 10 11 11 11 13 14 8 4 5 4 5 4 4 5 6 6 6 8 13 16 17 22 21 15 15 15 17 24 25 26 28 24 20 19 16 15 15 15 13 16 19 17 16 17 16 13 11 10 10 10 8 5 5 4 4 3 2 1 1 3 3 5 3 5 4 4 3 3 5 8 10 12 13 16 19 22 25 28 30 31
11 9 8 4 0 5 8 9 10 11 12 13 13 12 6 3 5 7 6 5 6 5 5 5 7 8 12 14 15 22 22 14 15 16 16 21 24 24 27 26 23 21 16 11 11 14 11 10 15 17 15 15 17 18 14 8 8 9 6 4 5 5 5 4 1 3 4 3 3 4 4 2 2 5 4 3 5 8 11 13 14 14 16 19 23 26 28 29
11 9 7 5 1 4 7 8 10 12 13 14 12 8 5 2 6 5 4 6 6 5 2 5 8 9 11 12 13 21 22 15 15 17 16 19 23 24 25 26 27 24 19 13 10 10 11 8 8 13 14 12 14 18 16 11 9 9 7 6 7 8 8 9 7 6 8 8 4 3 3 3 2 3 3 2 6 8 9 12 15 16 17 19 22 25 26 27
11 8 7 6 2 3 6 9 11 12 13 14 10 6 4 3 5 3 3 4 4 6 4 2 8 11 12 11 12 20 21 15 16 18 16 17 20 23 23 23 27 28 23 17 10 8 11 10 6 11 13 13 11 12 15 16 11 8 10 10 7 6 8 11 8 4 6 5 2 3 2 1 2 6 6 3 5 6 8 10 12 15 18 20 22 24 25 25
11 9 8 7 3 3 6 9 10 11 14 13 8 7 5 4 4 3 3 2 4 6 4 1 8 10 10 12 12 19 22 16 16 18 16 16 18 21 23 21 22 28 26 20 14 9 10 9 7 10 12 13 13 10 12 16 12 7 8 8 6 7 8 7 5 4 5 4 3 4 2 0 2 6 5 3 5 6 7 9 10 12 15 17 19 21 22 23
12 11 9 7 4 3 5 8 10 11 13 10 8 10 8 5 4 2 1 2 4 4 3 1 5 6 8 12 12 19 24 18 18 19 15 15 14 16 22 22 20 26 28 24 18 11 10 10 7 10 11 11 13 12 11 14 15 12 7 6 6 6 6 6 5 4 3 3 3 3 1 1 3 4 3 3 5 7 8 8 9 10 12 15 16 17 19 21
12 11 9 6 3 3 5 6 9 11 10 8 8 9 10 9 6 4 5 5 4 4 2 1 3 3 5 9 10 17 24 21 19 19 16 14 13 12 18 22 21 24 26 25 22 13 9 11 9 10 12 10 11 15 14 14 17 16 10 8 9 6 4 6 6 4 2 4 2 2 2 4 5 3 3 1 3 7 10 10 9 10 12 15 16 17 18 20
10 9 7 4 3 3 5 5 8 9 8 8 8 8 10 10 8 8 8 7 5 4 2 1 1 1 3 6 10 15 21 20 18 18 16 14 12 11 14 19 19 20 22 24 24 18 12 13 11 7 9 12 13 17 18 15 16 19 16 13 12 8 5 5 7 8 7 6 2 1 2 5 8 8 5 1 4 8 10 11 10 11 13 15 16 17 18 18
8 7 5 4 4 3 4 5 7 9 7 8 9 9 10 8 6 8 9 8 6 4 3 2 1 2 3 6 9 12 17 19 17 17 16 15 15 13 12 16 19 18 20 23 24 21 15 14 15 9 8 14 15 15 17 14 12 16 19 17 15 13 10 7 7 11 12 9 4 3 3 3 7 11 10 2 7 11 11 11 11 12 15 16 17 17 17 16
5 3 3 3 3 2 4 4 6 8 7 7 8 9 9 7 6 8 9 9 8 6 3 2 1 2 3 5 6 9 14 16 15 16 15 15 16 13 10 13 16 17 20 22 24 23 18 15 17 15 12 13 11 10 14 16 12 10 13 15 14 15 15 11 8 10 12 12 9 7 5 1 1 8 15 9 6 12 12 13 13 14 16 18 17 17 16 15
1 2 2 1 1 1 3 2 4 5 6 8 8 8 8 8 7 6 7 7 7 7 5 3 1 2 4 6 6 7 11 12 13 15 13 14 14 13 12 13 14 16 19 20 20 22 21 17 16 15 13 14 13 10 13 16 15 12 12 13 12 12 13 12 10 9 10 11 10 8 5 5 4 6 14 11 4 9 11 13 16 17 18 19 18 16 16 16
2 3 3 2 1 1 3 3 4 3 5 8 7 7 8 8 8 6 5 7 6 6 5 3 3 4 7 9 9 8 10 9 10 12 12 12 12 14 15 14 14 16 17 18 18 20 20 18 16 14 11 13 14 13 14 15 15 15 16 16 16 15 13 13 12 9 10 14 12 8 4 6 5 4 12 11 4 4 10 12 15 17 17 18 18 17 16 16
2 3 5 4 3 3 3 4 5 3 5 6 5 7 6 6 8 7 6 7 8 7 5 4 6 6 8 9 9 9 10 7 6 9 10 10 10 12 14 15 17 18 17 16 17 19 18 17 18 16 10 9 11 11 14 17 17 18 18 17 18 17 16 16 14 11 14 17 15 11 9 3 2 3 8 9 8 3 7 12 15 17 17 18 19 18 17 17
2 1 4 5 6 6 5 5 5 4 5 5 5 7 6 4 6 7 6 6 8 7 7 7 8 7 8 8 6 5 7 6 6 7 7 7 7 9 11 14 16 18 19 19 18 17 16 16 19 19 16 12 9 6 8 12 15 18 20 19 19 18 19 17 15 14 16 16 17 18 15 8 5 5 6 7 9 8 2 12 17 18 18 19 20 19 19 19
2 2 4 5 6 6 6 6 6 6 6 6 6 7 7 5 5 5 6 7 7 7 7 8 8 8 8 8 6 4 6 7 7 7 6 5 6 5 7 11 16 19 21 23 21 17 14 15 18 20 20 19 14 8 6 8 10 13 15 16 16 16 17 18 18 18 16 15 17 17 14 12 11 7 5 6 8 9 3 9 17 19 19 20 21 21 20 20
3 4 4 5 5 5 6 6 7 7 7 8 8 9 9 6 4 5 8 7 6 7 7 6 8 10 10 10 8 5 5 6 6 7 5 3 6 6 2 3 10 18 21 21 21 19 15 15 16 17 19 20 19 16 14 11 11 11 11 11 11 12 14 15 18 19 18 18 19 17 15 15 13 8 3 6 8 8 6 5 16 19 19 21 21 22 22 20
5 5 5 5 6 7 8 8 8 7 7 8 9 10 11 9 6 8 11 7 3 6 8 7 10 12 11 11 9 5 6 8 7 7 7 6 9 9 4 4 5 11 17 19 20 21 18 15 14 15 17 19 19 18 17 16 15 14 15 15 14 14 14 14 16 18 19 22 22 20 20 20 14 9 7 8 10 8 6 3 13 18 19 21 22 22 23 21
5 6 6 6 6 7 8 9 10 9 9 8 8 10 14 13 9 10 12 8 4 6 10 11 12 14 12 11 11 9 10 11 9 9 10 8 10 10 7 5 5 6 12 17 19 21 19 15 14 14 15 17 18 17 16 16 16 16 17 17 16 16 15 16 17 17 18 20 22 22 25 27 23 17 14 12 11 9 7 2 8 15 20 22 22 22 23 22
6 6 6 7 7 7 8 9 11 11 10 10 9 11 14 14 13 12 11 10 8 7 11 12 12 13 11 10 13 13 12 12 11 12 11 9 11 13 10 9 9 6 7 13 17 20 19 15 13 14 15 16 16 16 16 16 16 18 19 18 18 17 16 16 16 17 18 20 22 23 25 27 26 22 18 13 9 9 9 5 4 13 18 20 22 23 23 23
7 6 6 6 7 7 8 9 10 10 10 13 14 14 14 15 15 13 10 10 10 9 10 12 13 12 8 7 13 14 12 12 12 13 12 10 12 14 12 10 11 8 7 10 12 16 19 16 13 13 15 15 13 13 15 15 14 17 19 19 18 17 15 14 14 16 18 20 20 21 23 27 27 24 20 16 10 9 8 7 6 10 16 18 22 23 24 24
Wind_Direction
283 282 282 282 281 281 280 280 280 281 283 283 283 282 277 274 274 276 274 267 258 248 254 256 240 226 211 206 213 214 209 208 186 174 198 196 184 175 169 159 151 150 143 135 131 127 119 108 105 84 65 54 49 44 44 40 36 50 321 296 290 298 290 282 289 281 279 277 267 255 247 237 235 234 224 221 206 188 179 170 170 173 172 170 176 175 167 174
283 282 281 279 278 278 277 276 276 276 277 277 278 277 275 270 267 270 268 265 258 246 244 249 239 225 209 203 208 207 205 202 185 186 193 183 177 174 168 155 149 145 139 143 143 131 122 110 104 90 79 73 65 63 61 53 43 40 5 318 304 301 294 294 301 296 292 282 259 244 240 231 225 224 215 206 192 178 169 167 170 169 168 167 172 172 165 173
284 282 281 279 277 276 275 273 271 271 271 271 272 272 271 266 262 262 262 259 255 244 237 241 238 223 207 201 203 203 202 194 190 193 186 177 176 174 164 156 156 155 150 154 145 127 119 106 95 85 82 80 71 68 59 52 43 36 21 337 317 306 304 310 317 314 302 279 251 235 230 222 218 217 207 195 183 173 167 168 168 165 167 166 169 170 164 172
285 283 282 280 278 276 274 272 268 267 266 265 266 266 265 262 258 255 255 254 250 242 231 232 235 221 205 198 199 198 191 199 206 193 182 176 174 173 163 160 168 168 159 149 138 127 120 108 95 87 84 74 65 59 45 46 38 31 26 345 330 322 312 312 324 331 321 283 249 233 222 215 211 207 196 188 178 166 163 167 164 160 161 163 166 168 166 171
285 284 282 280 279 277 275 272 268 264 261 260 260 259 259 257 253 249 248 247 243 237 226 226 231 219 204 196 196 189 166 187 205 188 184 178 174 174 164 167 178 174 158 144 138 129 118 107 102 100 91 74 51 43 20 29 29 20 18 356 341 340 322 303 329 348 338 304 247 226 215 211 200 192 186 182 172 161 158 158 158 152 150 160 165 170 167 169
285 283 281 280 278 278 277 274 270 264 259 256 254 253 252 250 248 242 241 240 237 233 223 222 225 216 203 195 195 186 162 167 191 186 184 178 176 175 167 174 178 166 156 148 141 132 124 110 103 104 92 71 31 29 358 15 23 13 8 357 347 351 342 316 336 352 346 322 231 211 201 198 188 181 179 173 164 157 153 151 155 151 152 164 166 172 166 166
287 283 280 278 277 277 276 275 272 267 259 253 250 248 246 244 242 237 233 232 231 227 220 217 220 215 202 195 194 186 173 174 185 183 179 177 178 177 173 176 171 159 155 148 143 138 133 119 108 92 80 58 14 16 2 6 14 14 8 353 355 358 349 338 348 359 359 345 214 207 194 186 180 177 171 164 160 157 153 151 156 156 158 163 160 165 162 162
289 285 280 277 275 274 273 274 272 268 261 253 248 245 241 237 236 233 228 226 225 223 218 213 216 212 200 196 192 186 183 181 179 175 175 180 180 179 176 172 164 158 153 147 145 147 143 135 123 46 52 31 360 3 8 10 1 5 4 349 2 7 354 347 360 16 24 56 155 175 175 171 173 172 162 157 157 155 152 152 156 159 159 157 158 162 159 159
288 286 282 277 274 271 270 270 270 268 263 255 248 243 239 233 231 230 224 221 220 219 215 210 213 208 199 196 187 187 190 181 172 168 173 179 180 178 170 163 161 157 156 156 157 161 163 169 206 260 302 312 349 352 11 26 1 2 12 3 8 13 7 358 6 27 51 89 119 159 162 154 159 161 153 150 152 150 149 152 155 157 157 156 160 161 157 159
287 285 282 278 274 271 268 267 267 267 264 257 248 242 237 230 227 226 222 218 216 216 212 209 210 205 200 194 185 190 193 178 167 167 171 171 171 171 164 162 163 161 164 168 171 178 184 199 224 253 281 299 335 346 8 17 7 16 28 24 23 23 17 13 23 44 74 92 98 149 156 147 148 150 148 146 148 148 150 153 153 152 155 161 165 161 157 158
287 283 281 278 273 270 267 265 264 264 264 259 250 243 237 229 224 224 221 216 214 213 210 208 207 204 200 194 188 190 188 177 168 168 170 166 162 162 162 164 165 171 176 177 188 199 205 218 227 250 291 297 327 347 1 13 24 33 37 34 28 29 27 23 31 62 96 97 105 136 150 149 141 142 146 145 147 149 150 150 149 151 156 165 169 164 159 160
287 283 279 276 272 268 266 264 262 260 261 259 253 244 237 229 222 221 219 214 213 211 209 207 205 204 200 196 193 189 185 179 171 170 170 166 163 159 160 163 160 170 179 182 198 211 214 227 228 226 251 274 326 347 353 22 36 36 33 23 13 23 30 28 32 60 102 114 131 139 147 147 135 139 147 150 155 153 150 150 149 155 160 163 168 164 160 162
287 283 279 275 271 268 264 262 260 258 257 256 254 246 237 229 220 219 217 213 212 209 208 206 204 204 200 198 195 190 188 183 175 173 170 169 167 160 159 164 163 169 177 182 195 206 211 225 229 231 253 261 294 326 358 31 34 29 16 5 4 28 31 28 32 46 89 113 135 139 136 129 131 147 152 156 163 155 151 155 154 159 164 163 166 162 157 161
288 283 279 274 270 266 263 260 258 256 254 252 251 247 239 229 219 217 215 212 211 209 208 205 204 203 201 200 196 192 190 185 180 176 171 171 171 166 163 167 170 174 180 188 197 202 207 219 226 241 265 264 275 315 13 14 16 13 359 6 15 26 34 32 33 47 88 118 136 139 132 123 139 160 160 160 162 155 154 158 161 167 166 165 168 163 156 159
293 285 279 275 270 266 262 259 257 255 252 250 248 246 240 229 219 215 214 211 209 208 207 205 203 203 203 202 198 194 191 188 183 179 175 173 174 174 171 170 174 178 184 195 204 209 213 219 231 246 264 276 284 324 342 319 319 341 349 10 15 16 34 32 31 55 100 135 140 131 137 143 158 170 166 163 162 159 161 161 167 171 168 169 171 166 159 160
301 291 282 276 271 267 263 259 256 254 251 248 244 244 240 230 218 213 212 211 209 208 206 205 204 202 205 204 199 195 192 190 186 182 179 175 175 179 177 175 178 181 187 197 206 216 224 232 250 260 272 283 294 307 306 294 268 358 358 13 17 17 28 27 33 74 107 143 151 124 140 156 175 185 177 173 173 170 171 167 168 173 173 175 175 170 167 165
305 296 288 280 274 270 266 261 257 253 250 246 242 239 238 230 218 212 211 209 208 207 205 203 202 202 205 204 199 197 193 190 188 185 182 178 178 182 182 183 184 185 191 197 205 218 231 244 262 274 285 287 292 295 294 349 44 10 5 13 15 14 21 28 35 99 120 145 178 174 161 164 175 188 185 183 182 180 182 174 171 175 179 179 179 176 174 173
305 296 291 287 281 275 269 263 258 252 247 243 239 236 234 229 219 212 211 209 207 206 206 205 200 200 209 207 200 198 194 191 190 188 185 182 182 183 185 189 191 191 197 204 212 223 237 250 265 274 273 271 274 283 297 359 5 344 351 358 1 7 21 34 36 115 139 157 192 195 197 202 187 176 177 180 179 180 183 180 176 178 183 184 183 182 181 181
307 297 291 290 288 283 276 268 259 250 244 239 235 231 229 228 221 214 211 208 206 204 205 206 198 193 207 212 204 198 194 192 192 190 187 184 186 187 188 193 195 196 201 208 219 226 233 244 255 261 255 253 253 254 281 313 323 325 330 337 346 360 17 32 38 79 141 165 187 200 202 214 217 201 183 180 178 178 178 180 179 179 185 187 186 187 186 186
311 300 293 292 292 289 284 275 261 248 240 235 230 225 225 225 221 217 213 208 206 205 203 203 199 196 202 211 205 198 195 194 193 192 189 187 190 191 192 198 198 199 204 203 218 231 233 241 243 243 249 259 253 251 278 294 304 318 321 334 351 1 15 27 38 43 113 162 182 206 198 197 219 225 215 201 189 183 181 182 181 182 187 188 187 189 190 189
318 307 299 295 293 291 288 280 262 245 236 230 223 219 220 219 216 217 214 210 208 208 206 203 200 201 204 210 206 200 196 195 195 194 192 190 191 194 196 202 202 204 211 205 212 237 236 241 244 243 251 255 259 270 286 293 301 316 319 331 358 12 11 10 16 14 43 162 179 208 207 202 207 221 231 226 209 196 194 189 183 185 189 189 188 190 192 190
323 313 303 296 292 290 289 281 259 239 232 226 218 214 215 216 215 215 211 211 211 209 208 205 201 201 204 208 208 202 198 197 197 195 195 194 192 196 199 203 205 207 217 214 212 234 241 245 251 253 253 251 265 280 287 297 304 315 318 327 360 16 1 347 351 347 296 180 189 200 212 218 216 223 232 235 228 214 208 204 193 189 191 191 190 191 191 190
328 319 308 298 292 290 291 278 249 230 226 221 213 209 211 215 216 214 208 209 214 212 210 208 203 202 204 208 209 204 200 201 201 197 198 199 194 197 201 202 203 203 214 219 215 225 238 243 244 245 249 256 272 279 288 298 301 309 322 341 3 10 4 347 337 331 270 207 214 196 201 229 230 229 229 234 236 226 216 214 206 197 194 193 192 191 191 191
331 323 313 301 292 293 291 268 231 219 221 215 207 203 205 212 211 209 205 206 215 215 211 209 207 203 203 208 207 203 202 203 204 201 200 201 199 201 204 202 202 205 214 221 223 229 237 239 239 242 250 262 275 280 290 296 298 305 326 354 1 357 359 347 336 343 255 223 228 199 200 228 231 230 228 232 238 232 219 214 212 204 196 191 191 192 191 193
332 324 314 299 294 296 283 248 217 214 215 205 197 195 198 205 202 199 199 203 219 218 213 210 208 205 205 207 205 201 204 206 206 205 202 202 202 204 206 202 202 211 219 221 225 234 241 243 245 250 263 270 281 287 284 286 295 293 336 358 354 346 347 347 350 15 178 227 220 206 211 210 219 228 223 227 238 236 222 213 210 206 199 192 190 190 191 195
335 322 308 295 293 290 258 223 211 210 206 193 187 189 191 193 193 189 188 197 216 216 214 209 206 205 205 206 204 201 206 210 209 207 204 203 204 205 206 206 207 212 218 220 227 239 241 239 242 247 260 270 274 279 267 257 275 270 339 342 344 343 339 347 346 311 297 321 198 215 239 200 197 213 208 216 233 237 228 217 210 207 201 195 191 190 191 196
346 333 314 301 295 281 240 213 207 202 194 184 180 183 182 180 179 169 170 193 205 208 212 205 200 201 201 204 204 198 202 214 212 209 205 203 204 206 206 209 214 214 212 215 226 241 238 236 247 250 257 262 256 257 246 245 267 279 329 330 342 349 340 340 307 286 313 322 235 219 246 258 227 200 194 205 222 232 231 222 213 209 204 196 193 192 192 197
352 347 331 317 310 286 234 208 200 189 180 175 176 179 172 171 169 159 172 200 172 184 207 202 201 201 199 203 202 193 196 210 211 212 208 203 206 210 210 213 218 220 220 220 223 234 236 234 246 247 246 248 244 250 266 268 270 287 315 321 340 347 341 329 294 292 308 291 249 202 219 256 224 182 189 200 208 221 229 227 218 212 206 199 196 194 194 197
353 351 345 339 333 291 225 200 188 174 170 171 173 173 166 164 155 154 206 232 125 162 206 195 198 200 197 200 198 195 199 198 202 214 210 204 207 209 208 213 217 221 227 229 229 233 242 244 234 230 236 240 243 258 273 271 266 285 306 316 327 326 327 311 288 292 290 271 269 174 208 252 196 166 190 202 206 217 225 230 225 218 211 205 200 197 196 196
356 352 349 354 7 264 198 183 172 165 166 170 167 164 160 154 149 168 214 159 112 160 203 180 187 194 194 196 195 195 199 197 198 210 208 206 209 209 209 212 211 216 228 232 236 236 245 259 248 242 245 242 249 267 272 266 269 290 305 310 307 297 294 296 290 290 270 232 69 67 207 253 249 147 174 199 206 211 213 218 223 222 217 210 205 201 198 198
359 352 348 352 50 147 178 173 165 163 166 167 162 158 150 144 164 220 199 127 110 120 152 170 180 189 192 191 192 194 194 200 206 206 204 204 207 209 210 212 211 216 227 232 238 238 242 252 253 251 254 250 252 267 268 260 264 276 287 296 294 286 275 264 235 245 259 160 72 7 217 239 244 142 151 187 197 198 198 205 213 217 215 210 207 203 200 200
360 353 351 351 99 147 171 170 162 163 164 163 158 146 138 153 190 234 120 133 130 113 135 172 181 183 188 188 193 194 189 192 201 201 202 201 202 206 207 206 206 209 219 227 231 236 240 245 247 248 251 248 245 258 256 241 242 248 255 275 280 278 273 247 215 230 261 89 55 334 272 235 238 205 182 207 201 195 187 192 205 211 208 205 204 202 200 201
1 358 359 355 139 151 162 165 163 163 159 159 153 142 143 207 193 114 90 125 128 131 150 171 171 169 180 186 195 194 187 191 198 195 198 200 202 208 209 209 207 208 218 224 221 227 236 239 238 237 243 242 233 233 232 221 220 226 234 246 250 273 283 242 204 231 223 97 35 336 298 234 205 141 131 160 177 189 183 179 193 205 204 199 198 199 200 202
5 8 13 12 111 158 156 163 166 161 157 155 148 149 177 232 148 115 84 82 91 119 158 175 173 167 175 185 195 190 185 190 196 190 191 197 201 207 210 212 211 213 223 227 218 222 229 230 222 219 228 234 224 221 224 226 222 219 227 236 235 259 277 273 309 344 334 337 326 315 294 263 120 117 129 132 147 174 180 173 176 188 194 192 193 197 199 202
11 16 25 34 40 169 158 164 167 160 156 151 149 170 209 161 121 119 97 88 74 72 117 202 193 182 181 185 193 192 188 188 189 189 193 198 203 207 208 210 210 210 215 222 221 217 230 246 216 202 209 215 216 220 223 231 237 224 216 227 232 229 243 273 302 328 322 316 306 287 269 293 338 135 157 152 147 160 164 162 165 170 177 182 187 194 198 200
17 25 36 45 53 170 164 165 165 160 155 149 157 198 214 136 117 106 110 97 59 76 88 191 184 182 188 184 190 193 191 190 189 191 198 202 208 211 209 210 212 211 210 214 213 205 226 242 208 197 207 203 208 217 214 219 228 213 209 223 225 209 231 265 280 291 295 291 281 282 255 219 183 146 136 124 146 153 146 149 159 163 170 179 183 189 195 197
27 34 41 46 61 139 161 162 157 157 154 149 176 212 203 163 153 140 134 85 46 86 83 173 171 178 189 184 186 188 186 187 190 194 199 203 211 214 211 211 213 214 212 213 220 227 238 237 194 196 210 201 202 207 205 216 222 208 209 210 190 194 222 256 279 291 283 254 215 252 274 119 172 148 137 150 165 170 160 151 160 165 166 173 178 183 189 192
34 37 37 41 62 120 150 156 152 153 153 158 202 215 203 193 186 183 217 319 14 60 36 314 169 176 191 184 182 183 185 187 189 195 198 199 209 215 209 208 213 215 213 214 224 234 240 247 224 199 206 201 201 208 207 212 217 219 221 206 198 209 199 205 249 277 278 264 192 187 213 199 171 131 125 165 167 181 193 176 170 171 164 163 168 172 177 184
29 29 27 34 59 108 137 153 152 150 156 178 215 219 213 216 230 283 296 294 332 19 15 343 146 163 188 183 174 176 185 190 188 195 201 200 211 221 209 207 213 217 213 212 221 226 226 245 237 196 200 207 202 210 215 208 208 220 235 229 226 237 194 197 242 243 229 284 266 163 182 157 128 62 6 303 161 179 205 205 185 175 166 161 163 166 172 179
22 25 23 35 58 107 138 148 153 156 173 202 214 219 224 229 247 283 291 285 313 343 292 278 120 191 197 181 176 175 186 194 191 196 205 204 211 222 212 206 209 215 211 209 217 221 221 234 233 190 188 212 212 209 213 211 205 211 222 224 219 224 221 221 245 239 235 262 290 285 227 120 79 24 358 270 190 183 204 217 202 181 170 167 168 173 177 178
29 28 13 30 57 100 133 140 165 181 200 221 221 222 228 234 248 271 283 285 295 303 266 270 287 237 204 181 182 180 187 195 198 202 206 209 216 221 216 208 207 207 206 207 212 215 213 220 231 228 203 210 214 207 211 220 215 209 216 221 219 219 222 220 228 234 241 250 252 270 260 105 55 18 23 60 194 188 189 201 204 191 178 176 178 179 181 180
37 12 320 20 72 101 117 144 200 205 210 229 232 231 233 234 241 257 274 284 291 292 276 270 270 171 165 176 184 186 189 195 203 207 209 215 220 223 223 216 210 204 202 207 210 211 213 218 231 239 229 217 210 201 209 213 210 216 223 223 219 218 222 225 222 225 237 241 235 247 260 166 6 5 23 34 185 188 183 180 187 195 189 185 184 180 180 180
339 255 279 21 87 118 110 157 244 229 226 239 240 238 237 232 233 246 260 270 281 284 277 269 249 144 164 173 169 183 193 196 206 211 215 225 225 224 227 223 214 206 205 210 209 206 211 219 230 235 236 236 233 229 227 217 211 223 228 222 222 223 227 237 238 237 245 240 230 235 223 169 197 339 13 27 132 179 189 179 180 194 196 190 185 180 179 179
285 255 257 268 257 181 133 190 235 230 245 252 243 240 242 237 231 223 226 242 253 262 268 259 226 192 178 168 153 165 185 192 208 213 217 228 229 225 228 227 219 210 206 207 203 200 205 211 221 227 228 231 228 224 223 217 215 222 222 221 226 230 235 242 244 247 249 247 253 265 236 159 156 355 11 24 48 185 197 181 178 191 193 186 184 181 181 181
329 284 267 257 242 215 190 209 212 217 250 251 238 236 234 237 235 210 197 225 237 239 242 234 221 204 188 174 157 167 182 180 196 208 208 217 223 222 220 219 216 211 208 204 197 202 210 206 209 218 220 211 208 208 211 211 213 217 220 224 225 228 236 239 239 238 232 237 245 250 253 230 168 340 3 23 21 351 201 179 175 183 182 177 180 181 181 184
9 306 268 262 254 245 241 233 215 215 238 229 227 233 221 224 236 209 190 213 227 228 225 223 220 210 199 192 178 190 202 188 180 188 193 202 211 220 223 218 213 209 209 207 199 203 215 210 209 219 226 223 210 190 197 208 212 214 218 223 224 231 239 235 232 236 236 239 238 230 239 259 256 287 342 19 21 13 208 184 176 176 176 175 177 180 182 185
315 257 246 254 258 252 252 250 231 220 222 210 212 225 216 216 231 211 196 205 214 219 222 225 227 220 211 206 202 214 207 190 182 182 190 200 190 205 232 223 214 209 206 206 203 202 212 216 216 222 230 236 238 229 214 216 220 217 215 217 220 228 235 228 224 231 236 245 250 242 241 244 239 258 339 8 10 16 31 183 180 178 178 176 177 179 183 187
288 269 257 247 242 233 234 241 232 222 221 214 213 217 211 212 229 212 199 199 203 203 203 223 235 226 217 207 198 197 194 187 185 183 186 188 174 175 165 165 198 204 200 201 203 201 210 221 219 220 230 238 243 245 242 238 238 232 226 228 229 229 232 230 229 229 227 233 246 252 252 246 237 240 310 349 351 5 23 174 187 187 183 178 177 181 184 187
275 267 266 254 247 239 235 238 234 228 226 218 215 216 210 209 220 212 201 192 192 198 189 200 225 224 217 207 197 201 202 186 175 184 193 187 173 173 158 107 154 192 192 194 200 202 210 223 218 217 229 235 236 240 242 240 242 244 243 244 242 239 238 238 237 233 228 231 238 244 252 257 254 245 267 309 328 341 1 179 195 198 194 186 181 182 186 189
285 271 266 260 258 252 246 243 236 233 234 225 218 220 215 211 212 209 203 190 179 204 199 201 217 217 210 203 201 207 205 190 184 193 194 185 172 169 172 166 150 168 184 189 198 204 209 221 221 217 227 235 234 236 238 239 244 249 248 245 242 242 244 243 241 238 232 232 233 234 244 254 257 257 265 285 306 316 329 313 203 200 198 197 192 187 188 192
292 281 268 263 263 259 252 247 238 235 238 234 228 223 219 216 211 206 205 200 189 198 202 199 202 199 190 195 204 207 204 196 197 202 194 181 173 168 168 169 158 149 175 188 200 206 206 215 222 217 226 235 229 227 232 235 243 248 248 245 241 241 243 241 239 236 232 229 228 229 238 248 254 262 269 275 289 302 316 326 229 198 193 199 202 195 190 194
298 292 276 269 272 263 254 249 240 231 232 234 231 224 220 221 214 204 204 207 199 196 198 190 182 175 168 192 204 202 202 198 197 204 204 192 178 172 166 160 153 144 152 179 200 203 200 209 216 213 224 229 218 217 226 227 235 242 239 237 236 236 240 240 235 232 231 228 225 227 233 241 249 262 272 272 270 274 289 306 269 211 194 199 207 202 194 193
Height
3145 3145 3145 3145 3145 3145 3145 3144 3144 3144 3144 3144 3144 3144 3144 3144 3144 3144 3144 3144 3144 3144 3145 3144 3144 3144 3145 3146 3147 3148 3148 3149 3149 3150 3150 3150 3150 3151 3152 3153 3154 3155 3156 3156 3157 3157 3158 3158 3157 3157 3157 3157 3156 3156 3155 3154 3153 3153 3153 3152 3151 3151 3150 3148 3148 3148 3147 3146 3145 3145 3146 3146 3147 3147 3148 3148 3149 3151 3152 3155 3157 3159 3160 3161 3162 3163 3165 3167
3142 3142 3142 3142 3142 3142 3142 3142 3142 3142 3142 3142 3142 3142 3143 3143 3143 3143 3143 3143 3143 3143 3144 3143 3143 3144 3144 3146 3146 3147 3148 3148 3149 3149 3149 3149 3150 3151 3152 3154 3154 3155 3156 3156 3157 3157 3158 3158 3158 3157 3157 3157 3156 3156 3155 3154 3153 3153 3152 3151 3151 3150 3149 3147 3146 3145 3144 3144 3143 3143 3144 3145 3145 3146 3147 3148 3149 3150 3152 3154 3156 3158 3160 3161 3162 3163 3164 3166
3140 3140 3140 3140 3140 3140 3140 3140 3140 3140 3140 3140 3140 3141 3141 3141 3141 3141 3141 3141 3142 3142 3143 3143 3142 3143 3144 3145 3146 3147 3147 3148 3148 3148 3148 3149 3150 3151 3152 3153 3154 3154 3155 3156 3157 3157 3158 3158 3158 3158 3157 3157 3156 3156 3155 3154 3153 3152 3152 3151 3150 3148 3147 3146 3145 3143 3142 3142 3141 3142 3142 3143 3143 3144 3146 3147 3148 3150 3152 3155 3156 3158 3160 3161 3162 3163 3165 3166
3137 3137 3137 3137 3137 3137 3137 3137 3138 3138 3138 3138 3139 3139 3139 3139 3140 3140 3140 3140 3140 3141 3141 3142 3141 3142 3143 3144 3145 3146 3147 3148 3148 3148 3148 3149 3150 3151 3152 3153 3153 3154 3155 3156 3157 3157 3158 3158 3158 3158 3157 3157 3156 3155 3154 3154 3153 3152 3151 3150 3149 3147 3146 3145 3143 3142 3140 3140 3140 3140 3140 3141 3142 3143 3145 3146 3148 3150 3153 3155 3157 3159 3160 3162 3163 3164 3165 3167
3135 3135 3135 3135 3135 3135 3135 3135 3135 3135 3136 3136 3136 3137 3137 3138 3138 3138 3139 3139 3139 3140 3140 3141 3141 3141 3142 3143 3145 3146 3147 3148 3148 3147 3148 3149 3150 3151 3152 3153 3153 3154 3155 3156 3157 3157 3158 3158 3158 3158 3158 3157 3156 3156 3155 3154 3153 3152 3151 3150 3148 3146 3145 3144 3142 3140 3139 3138 3138 3138 3139 3140 3141 3142 3144 3146 3148 3150 3153 3155 3157 3159 3161 3163 3164 3165 3166 3168
3133 3132 3132 3133 3133 3133 3133 3132 3132 3133 3133 3133 3134 3135 3135 3136 3136 3137 3137 3138 3138 3139 3139 3139 3140 3140 3141 3143 3144 3145 3146 3147 3147 3147 3148 3149 3150 3150 3151 3152 3153 3154 3155 3156 3157 3158 3158 3158 3158 3159 3158 3158 3157 3157 3156 3154 3153 3152 3151 3150 3148 3146 3144 3142 3140 3139 3138 3137 3137 3137 3137 3139 3140 3141 3143 3146 3149 3151 3153 3155 3157 3159 3161 3163 3164 3165 3167 3168
3130 3130 3130 3130 3130 3130 3130 3130 3130 3130 3130 3131 3132 3133 3133 3134 3135 3135 3136 3136 3137 3137 3138 3138 3139 3140 3141 3142 3143 3144 3145 3145 3146 3147 3148 3148 3149 3150 3151 3152 3153 3154 3155 3156 3157 3158 3158 3158 3159 3159 3158 3158 3158 3157 3156 3154 3152 3151 3151 3150 3148 3145 3143 3141 3139 3138 3137 3136 3135 3136 3137 3138 3139 3141 3143 3145 3148 3151 3153 3155 3157 3159 3161 3163 3164 3166 3167 3169
3127 3127 3127 3128 3128 3128 3128 3128 3128 3128 3128 3128 3129 3130 3131 3132 3133 3133 3134 3135 3136 3136 3137 3137 3138 3139 3140 3141 3142 3144 3145 3145 3145 3146 3147 3148 3149 3150 3151 3152 3153 3154 3155 3157 3157 3158 3158 3158 3159 3159 3159 3159 3158 3156 3155 3153 3151 3150 3150 3149 3147 3145 3143 3141 3139 3138 3136 3135 3135 3135 3136 3138 3140 3142 3143 3146 3148 3151 3153 3155 3157 3159 3161 3163 3164 3166 3167 3169
3125 3125 3125 3125 3125 3125 3126 3126 3126 3126 3126 3126 3127 3128 3129 3130 3131 3132 3132 3133 3134 3135 3135 3136 3137 3138 3139 3140 3142 3143 3144 3144 3145 3146 3147 3148 3149 3150 3151 3152 3153 3154 3156 3156 3157 3158 3158 3158 3159 3159 3159 3159 3157 3156 3155 3153 3151 3150 3150 3148 3146 3144 3142 3141 3139 3138 3137 3136 3136 3136 3137 3138 3140 3142 3144 3147 3149 3151 3153 3156 3158 3159 3161 3163 3165 3166 3167 3169
3122 3122 3122 3122 3122 3123 3123 3123 3124 3123 3124 3124 3125 3126 3127 3128 3129 3130 3131 3132 3132 3133 3134 3135 3135 3137 3138 3139 3141 3143 3143 3143 3145 3146 3147 3148 3149 3150 3151 3152 3153 3155 3155 3156 3157 3157 3158 3158 3158 3158 3158 3158 3157 3156 3154 3154 3153 3150 3149 3147 3146 3144 3143 3141 3139 3138 3137 3137 3137 3137 3139 3140 3141 3143 3145 3147 3150 3152 3154 3156 3158 3160 3162 3164 3165 3166 3167 3169
3120 3119 3119 3119 3120 3120 3120 3121 3121 3121 3122 3122 3123 3123 3124 3126 3127 3128 3129 3130 3131 3132 3132 3133 3134 3135 3137 3138 3140 3141 3142 3143 3144 3145 3147 3148 3149 3150 3151 3152 3153 3154 3155 3156 3156 3157 3158 3158 3158 3158 3158 3157 3157 3156 3154 3153 3152 3150 3148 3147 3145 3144 3143 3141 3140 3139 3138 3138 3138 3139 3140 3141 3143 3145 3146 3148 3151 3153 3155 3156 3158 3160 3162 3164 3165 3166 3167 3169
3117 3117 3117 3117 3117 3117 3118 3118 3119 3119 3120 3120 3121 3121 3122 3124 3125 3126 3127 3128 3129 3130 3131 3132 3133 3134 3135 3137 3138 3139 3141 3142 3143 3145 3146 3148 3148 3149 3150 3151 3152 3154 3154 3155 3156 3156 3157 3157 3157 3157 3158 3157 3156 3156 3155 3153 3152 3150 3148 3147 3146 3145 3144 3142 3140 3140 3139 3138 3139 3140 3141 3142 3144 3146 3148 3150 3152 3154 3155 3157 3159 3161 3163 3164 3165 3166 3167 3169
3114 3114 3114 3114 3114 3114 3115 3116 3116 3117 3117 3118 3119 3119 3120 3121 3123 3124 3125 3126 3128 3129 3129 3130 3131 3133 3134 3136 3137 3138 3140 3141 3142 3144 3146 3147 3148 3148 3150 3151 3152 3153 3153 3154 3154 3155 3156 3156 3156 3157 3157 3156 3156 3156 3154 3152 3151 3149 3148 3146 3146 3146 3144 3142 3141 3141 3140 3139 3140 3141 3142 3144 3145 3147 3149 3151 3153 3155 3156 3158 3160 3162 3163 3164 3165 3166 3168 3169
3112 3111 3111 3111 3111 3112 3112 3113 3113 3114 3115 3116 3117 3117 3118 3119 3121 3122 3123 3125 3126 3127 3128 3129 3130 3131 3133 3134 3135 3137 3139 3140 3142 3143 3145 3146 3147 3148 3149 3150 3151 3152 3152 3153 3153 3154 3155 3156 3156 3156 3156 3156 3155 3154 3153 3152 3150 3149 3148 3145 3144 3144 3142 3143 3143 3142 3141 3141 3142 3143 3144 3146 3147 3149 3150 3152 3154 3155 3157 3158 3160 3162 3163 3164 3166 3167 3168 3170
3110 3109 3108 3108 3108 3109 3109 3110 3111 3112 3113 3114 3114 3115 3116 3117 3119 3120 3121 3123 3124 3125 3126 3127 3129 3130 3131 3133 3134 3136 3137 3139 3141 3142 3144 3146 3147 3148 3148 3150 3151 3152 3152 3153 3153 3154 3154 3155 3156 3156 3156 3155 3155 3153 3152 3152 3151 3150 3148 3146 3145 3143 3142 3144 3144 3143 3143 3143 3144 3145 3146 3148 3149 3150 3151 3152 3154 3156 3158 3159 3161 3162 3163 3165 3166 3168 3169 3170
3107 3106 3106 3106 3106 3106 3106 3107 3108 3109 3110 3111 3112 3113 3114 3115 3117 3118 3119 3121 3122 3124 3125 3126 3127 3129 3130 3131 3132 3134 3136 3138 3140 3141 3143 3144 3146 3148 3148 3149 3150 3151 3152 3152 3153 3153 3154 3155 3155 3155 3155 3155 3155 3154 3152 3150 3150 3150 3149 3147 3147 3145 3144 3145 3146 3146 3146 3146 3146 3147 3147 3149 3150 3151 3152 3153 3154 3156 3158 3160 3161 3163 3164 3165 3167 3168 3169 3170
3105 3104 3103 3103 3103 3103 3104 3104 3105 3106 3108 3108 3110 3111 3112 3113 3114 3116 3117 3119 3120 3122 3124 3125 3126 3128 3128 3129 3131 3133 3135 3137 3138 3140 3142 3143 3145 3146 3148 3149 3150 3151 3152 3152 3153 3153 3154 3154 3155 3155 3155 3155 3154 3154 3151 3148 3149 3150 3150 3148 3148 3147 3146 3146 3147 3147 3148 3148 3148 3148 3149 3149 3150 3151 3152 3153 3155 3156 3159 3160 3161 3163 3164 3165 3166 3168 3169 3170
3103 3102 3101 3101 3101 3101 3101 3102 3103 3104 3105 3106 3107 3109 3110 3111 3112 3114 3115 3117 3119 3121 3123 3124 3125 3127 3128 3128 3129 3131 3133 3135 3137 3139 3140 3142 3144 3145 3147 3148 3149 3151 3152 3152 3153 3153 3154 3154 3155 3155 3156 3155 3155 3154 3152 3150 3151 3152 3151 3150 3149 3148 3147 3147 3147 3148 3148 3149 3149 3149 3149 3150 3150 3151 3152 3153 3154 3156 3158 3159 3161 3163 3164 3165 3166 3167 3169 3170
3101 3100 3099 3099 3098 3098 3098 3099 3100 3101 3102 3103 3105 3106 3108 3109 3111 3112 3114 3115 3117 3119 3121 3122 3123 3125 3126 3125 3127 3129 3132 3134 3136 3137 3139 3141 3143 3144 3146 3147 3148 3150 3151 3152 3153 3153 3153 3154 3155 3155 3156 3156 3155 3154 3153 3152 3153 3152 3151 3151 3150 3149 3148 3148 3147 3147 3148 3149 3149 3149 3150 3151 3151 3151 3152 3153 3154 3156 3157 3159 3160 3162 3164 3165 3166 3167 3169 3170
3099 3098 3097 3097 3096 3096 3096 3097 3097 3098 3099 3100 3102 3104 3106 3108 3109 3111 3112 3113 3115 3117 3119 3120 3121 3123 3123 3124 3126 3128 3131 3133 3135 3137 3138 3140 3142 3143 3145 3146 3147 3149 3150 3152 3153 3152 3153 3154 3155 3155 3155 3155 3154 3154 3153 3152 3152 3152 3151 3151 3150 3149 3149 3149 3148 3147 3148 3148 3148 3149 3150 3151 3152 3151 3152 3153 3154 3155 3157 3158 3160 3161 3163 3164 3165 3167 3168 3170
3097 3096 3095 3095 3094 3094 3094 3094 3095 3096 3097 3098 3100 3102 3104 3106 3108 3109 3110 3112 3114 3115 3117 3118 3120 3121 3122 3123 3124 3127 3129 3132 3133 3135 3137 3139 3141 3142 3144 3145 3146 3148 3150 3151 3153 3152 3152 3153 3154 3155 3155 3154 3154 3153 3152 3152 3152 3152 3151 3150 3149 3149 3149 3149 3148 3147 3148 3148 3148 3148 3149 3150 3151 3151 3151 3152 3153 3155 3156 3158 3159 3161 3162 3163 3164 3166 3168 3169
3095 3094 3093 3093 3092 3092 3092 3092 3092 3093 3095 3096 3098 3101 3102 3104 3106 3107 3109 3111 3112 3114 3115 3117 3118 3120 3121 3122 3124 3126 3128 3130 3132 3134 3136 3138 3140 3141 3143 3144 3146 3149 3150 3150 3152 3152 3152 3152 3153 3154 3154 3153 3153 3153 3152 3152 3151 3151 3151 3149 3148 3148 3148 3147 3147 3147 3147 3147 3147 3147 3148 3149 3149 3150 3150 3150 3152 3154 3156 3157 3159 3160 3161 3162 3163 3165 3167 3168
3093 3092 3091 3091 3090 3090 3090 3090 3090 3091 3093 3095 3097 3099 3101 3103 3104 3106 3108 3110 3111 3112 3113 3115 3117 3119 3120 3122 3122 3125 3127 3129 3131 3133 3135 3136 3139 3140 3142 3144 3146 3149 3149 3149 3151 3152 3152 3152 3152 3152 3153 3153 3153 3153 3152 3152 3151 3151 3150 3149 3148 3149 3148 3147 3146 3146 3146 3146 3146 3146 3148 3148 3148 3149 3149 3149 3150 3152 3154 3156 3157 3159 3160 3162 3163 3164 3166 3167
3092 3091 3090 3089 3088 3088 3088 3088 3089 3090 3091 3093 3096 3098 3100 3102 3103 3105 3107 3109 3110 3110 3112 3114 3116 3117 3119 3120 3121 3124 3126 3128 3129 3131 3133 3135 3138 3139 3141 3143 3146 3148 3148 3148 3150 3151 3151 3151 3151 3151 3152 3152 3153 3152 3152 3152 3151 3151 3150 3149 3149 3149 3149 3148 3146 3145 3145 3145 3145 3146 3148 3148 3147 3147 3148 3148 3148 3150 3152 3154 3155 3157 3159 3161 3162 3163 3164 3166
3091 3089 3088 3087 3087 3087 3087 3087 3088 3089 3090 3093 3095 3097 3099 3101 3102 3104 3106 3108 3109 3109 3111 3112 3114 3116 3117 3118 3120 3122 3124 3125 3127 3130 3132 3135 3137 3139 3141 3143 3145 3147 3148 3149 3150 3150 3150 3151 3151 3151 3151 3152 3152 3152 3152 3151 3150 3150 3149 3149 3149 3148 3148 3147 3146 3144 3144 3144 3144 3145 3145 3145 3145 3146 3147 3147 3146 3148 3150 3152 3153 3155 3157 3159 3160 3162 3163 3164
3090 3088 3087 3086 3086 3086 3086 3087 3087 3088 3090 3093 3094 3096 3098 3100 3102 3103 3105 3107 3108 3108 3109 3110 3112 3114 3115 3117 3119 3121 3123 3124 3126 3128 3131 3134 3137 3139 3141 3142 3143 3146 3147 3148 3149 3148 3148 3149 3149 3150 3150 3151 3152 3151 3151 3151 3150 3149 3148 3148 3148 3148 3147 3147 3146 3145 3144 3143 3143 3144 3143 3142 3142 3143 3144 3145 3145 3146 3148 3149 3151 3153 3155 3157 3159 3160 3161 3163
3089 3088 3086 3085 3085 3085 3086 3086 3087 3088 3090 3092 3094 3096 3098 3099 3101 3103 3105 3106 3105 3106 3107 3108 3110 3111 3113 3115 3117 3121 3123 3123 3124 3127 3130 3133 3135 3137 3140 3141 3142 3144 3145 3147 3148 3146 3146 3147 3148 3148 3150 3150 3150 3150 3150 3151 3150 3148 3147 3147 3147 3147 3147 3146 3146 3145 3144 3143 3143 3142 3142 3141 3140 3140 3141 3143 3144 3145 3145 3147 3149 3150 3152 3155 3157 3159 3160 3161
3089 3087 3086 3085 3085 3085 3085 3086 3087 3088 3090 3092 3094 3096 3097 3099 3101 3102 3104 3102 3102 3104 3106 3106 3108 3109 3111 3113 3116 3120 3121 3121 3123 3125 3127 3131 3134 3136 3139 3141 3142 3143 3144 3145 3146 3144 3144 3146 3147 3147 3149 3149 3149 3149 3149 3150 3149 3147 3146 3146 3147 3147 3146 3146 3145 3144 3144 3143 3141 3141 3142 3140 3137 3137 3140 3141 3142 3143 3143 3144 3146 3148 3150 3152 3155 3157 3159 3160
3089 3087 3085 3085 3085 3085 3086 3086 3087 3089 3090 3092 3094 3095 3097 3099 3101 3103 3102 3100 3101 3104 3105 3105 3107 3108 3110 3112 3115 3118 3119 3121 3123 3123 3126 3130 3132 3134 3137 3139 3141 3143 3143 3143 3144 3144 3144 3144 3145 3145 3147 3148 3148 3148 3148 3148 3148 3147 3146 3146 3146 3146 3145 3145 3144 3143 3143 3142 3139 3139 3140 3138 3134 3135 3138 3138 3140 3141 3141 3142 3143 3145 3148 3150 3152 3155 3157 3159
3089 3087 3086 3085 3084 3085 3086 3086 3088 3089 3091 3092 3094 3096 3098 3099 3101 3102 3101 3100 3102 3103 3103 3104 3106 3107 3109 3111 3113 3116 3119 3121 3121 3122 3125 3128 3130 3132 3135 3137 3139 3142 3142 3142 3143 3143 3143 3142 3142 3144 3145 3146 3146 3146 3147 3147 3147 3146 3146 3146 3146 3145 3145 3144 3143 3143 3141 3139 3137 3138 3140 3138 3134 3133 3136 3136 3137 3138 3139 3140 3141 3142 3145 3147 3150 3152 3155 3157
3089 3087 3086 3085 3085 3085 3086 3086 3088 3089 3091 3093 3094 3096 3098 3100 3101 3100 3098 3099 3102 3103 3103 3104 3105 3106 3108 3110 3113 3115 3118 3120 3120 3121 3123 3126 3129 3131 3133 3136 3137 3140 3141 3141 3141 3142 3142 3142 3142 3143 3143 3143 3145 3145 3146 3146 3146 3146 3147 3147 3146 3144 3144 3142 3141 3141 3137 3135 3137 3138 3138 3138 3135 3132 3134 3135 3135 3136 3137 3139 3139 3140 3142 3144 3147 3150 3153 3155
3089 3088 3087 3086 3085 3085 3086 3087 3088 3090 3091 3093 3095 3097 3099 3101 3101 3099 3098 3100 3102 3103 3105 3105 3105 3106 3108 3110 3113 3114 3116 3118 3119 3121 3122 3124 3127 3129 3131 3134 3136 3137 3139 3139 3139 3140 3140 3140 3141 3142 3142 3142 3144 3145 3145 3146 3146 3146 3146 3147 3146 3143 3142 3140 3137 3136 3133 3133 3137 3137 3137 3137 3134 3132 3134 3134 3134 3135 3135 3137 3138 3138 3140 3142 3145 3148 3151 3153
3089 3088 3087 3087 3086 3086 3087 3088 3089 3090 3092 3094 3096 3097 3100 3100 3099 3099 3100 3101 3102 3103 3104 3105 3105 3106 3107 3110 3112 3113 3116 3118 3118 3120 3122 3124 3127 3128 3130 3132 3134 3136 3135 3136 3138 3138 3138 3138 3139 3140 3140 3140 3142 3143 3144 3144 3145 3145 3145 3145 3145 3142 3141 3138 3134 3132 3131 3133 3136 3136 3135 3133 3131 3131 3133 3133 3133 3134 3134 3135 3136 3137 3139 3141 3143 3146 3149 3151
3090 3089 3088 3088 3087 3087 3087 3088 3089 3090 3092 3095 3097 3099 3100 3099 3098 3100 3102 3102 3102 3103 3104 3104 3105 3106 3107 3109 3111 3112 3115 3117 3118 3120 3122 3123 3125 3127 3128 3130 3133 3134 3135 3135 3136 3136 3135 3134 3135 3137 3139 3138 3139 3141 3142 3142 3143 3143 3143 3144 3144 3143 3143 3139 3132 3132 3133 3133 3134 3134 3133 3130 3129 3131 3132 3132 3132 3132 3133 3134 3135 3136 3138 3140 3143 3145 3147 3150
3090 3089 3088 3088 3088 3088 3089 3089 3090 3091 3093 3095 3098 3100 3100 3099 3100 3101 3101 3101 3102 3103 3104 3104 3104 3106 3107 3109 3110 3111 3113 3116 3117 3119 3121 3122 3123 3124 3126 3128 3130 3132 3135 3135 3134 3134 3135 3133 3132 3135 3136 3137 3139 3140 3141 3142 3142 3142 3142 3143 3143 3144 3145 3141 3135 3137 3137 3135 3133 3132 3131 3130 3129 3130 3132 3131 3132 3132 3132 3133 3134 3136 3137 3139 3141 3143 3146 3149
3091 3090 3089 3089 3089 3089 3089 3090 3091 3092 3094 3096 3099 3101 3100 3099 3100 3101 3101 3101 3101 3102 3103 3103 3104 3105 3107 3108 3109 3110 3112 3114 3116 3118 3119 3120 3122 3122 3124 3126 3127 3129 3132 3133 3133 3133 3134 3132 3132 3134 3134 3136 3138 3139 3141 3141 3140 3140 3141 3142 3142 3143 3144 3142 3139 3139 3138 3136 3134 3131 3129 3129 3129 3130 3132 3132 3132 3132 3132 3133 3135 3136 3137 3138 3140 3142 3145 3147
3091 3090 3090 3089 3089 3090 3090 3091 3092 3093 3094 3096 3100 3101 3100 3100 3100 3100 3100 3100 3101 3101 3101 3102 3103 3104 3105 3106 3107 3108 3111 3113 3114 3116 3118 3119 3119 3120 3122 3124 3126 3127 3130 3132 3132 3133 3132 3131 3131 3133 3134 3135 3137 3138 3139 3140 3139 3140 3141 3141 3141 3142 3143 3142 3141 3139 3137 3134 3132 3130 3128 3128 3128 3128 3131 3132 3132 3133 3133 3134 3135 3136 3137 3139 3140 3142 3144 3147
3092 3091 3091 3091 3090 3091 3091 3092 3093 3094 3095 3097 3100 3100 3100 3100 3100 3099 3100 3100 3100 3101 3101 3102 3102 3102 3104 3105 3105 3107 3109 3111 3113 3114 3116 3117 3117 3117 3119 3122 3123 3125 3128 3131 3132 3132 3132 3131 3130 3132 3134 3134 3135 3136 3137 3138 3139 3140 3141 3140 3139 3139 3140 3142 3142 3140 3139 3135 3129 3128 3128 3128 3128 3128 3130 3132 3132 3133 3134 3134 3135 3136 3137 3139 3140 3142 3144 3146
3093 3092 3092 3092 3092 3092 3092 3093 3094 3094 3096 3098 3100 3100 3099 3100 3100 3099 3100 3100 3100 3101 3102 3102 3102 3102 3103 3103 3104 3106 3108 3109 3111 3113 3114 3115 3115 3115 3117 3120 3121 3123 3126 3129 3131 3131 3133 3132 3129 3129 3132 3133 3134 3135 3135 3136 3137 3139 3140 3139 3139 3138 3138 3140 3140 3138 3140 3138 3131 3127 3127 3127 3128 3130 3131 3131 3132 3134 3135 3134 3135 3136 3138 3139 3141 3142 3144 3145
3094 3094 3093 3093 3093 3093 3093 3094 3094 3095 3097 3099 3100 3099 3099 3099 3100 3100 3099 3100 3100 3101 3102 3102 3102 3102 3103 3103 3104 3105 3107 3108 3110 3112 3112 3113 3114 3114 3116 3118 3120 3121 3124 3127 3129 3130 3132 3132 3129 3128 3131 3132 3132 3132 3133 3134 3135 3137 3138 3137 3137 3138 3137 3139 3139 3138 3139 3138 3134 3131 3128 3126 3129 3131 3131 3131 3132 3134 3135 3134 3135 3136 3138 3140 3141 3142 3144 3145
3095 3095 3095 3094 3094 3094 3094 3095 3095 3096 3097 3098 3098 3098 3098 3099 3100 3100 3099 3099 3100 3100 3100 3101 3101 3102 3102 3102 3104 3105 3106 3107 3109 3110 3111 3112 3112 3113 3114 3116 3118 3120 3123 3124 3126 3128 3130 3131 3129 3128 3128 3129 3129 3130 3131 3132 3132 3133 3135 3135 3135 3137 3137 3137 3137 3137 3136 3135 3135 3135 3130 3127 3129 3131 3130 3129 3130 3131 3134 3135 3136 3137 3139 3140 3141 3143 3145 3146
3096 3096 3096 3094 3094 3094 3095 3096 3096 3096 3097 3098 3097 3097 3097 3098 3099 3099 3099 3099 3099 3100 3100 3100 3100 3100 3101 3102 3103 3104 3105 3107 3108 3109 3110 3110 3111 3112 3113 3114 3116 3119 3121 3122 3124 3126 3128 3129 3129 3127 3127 3127 3128 3129 3130 3130 3130 3131 3132 3132 3133 3135 3135 3134 3134 3135 3135 3133 3133 3133 3130 3128 3130 3131 3130 3129 3129 3130 3132 3133 3136 3138 3139 3139 3141 3143 3145 3147
3096 3096 3096 3095 3095 3095 3095 3097 3097 3096 3097 3097 3096 3096 3096 3097 3098 3098 3099 3099 3099 3099 3100 3100 3100 3100 3101 3101 3101 3103 3104 3106 3107 3107 3109 3109 3110 3112 3112 3113 3115 3117 3119 3120 3122 3124 3126 3127 3127 3127 3127 3127 3127 3128 3129 3129 3130 3130 3130 3131 3132 3133 3133 3132 3133 3134 3134 3131 3130 3129 3128 3129 3131 3131 3130 3129 3129 3130 3131 3132 3134 3137 3138 3139 3141 3143 3145 3146
3095 3095 3095 3095 3095 3094 3095 3097 3097 3097 3096 3095 3095 3096 3096 3096 3096 3097 3098 3098 3099 3099 3099 3100 3100 3100 3100 3100 3101 3102 3104 3104 3105 3106 3107 3108 3109 3110 3110 3111 3113 3115 3116 3118 3120 3121 3123 3124 3125 3125 3125 3125 3125 3126 3127 3128 3129 3130 3130 3131 3131 3132 3132 3132 3132 3134 3134 3131 3129 3128 3126 3127 3130 3131 3131 3131 3130 3130 3131 3131 3133 3135 3137 3139 3141 3143 3145 3146
3094 3094 3094 3094 3094 3094 3094 3095 3095 3096 3096 3095 3095 3096 3096 3096 3096 3096 3097 3097 3097 3098 3099 3099 3099 3099 3100 3100 3101 3102 3102 3103 3104 3105 3105 3106 3107 3107 3108 3109 3110 3112 3114 3117 3118 3119 3120 3122 3123 3122 3120 3120 3120 3121 3122 3124 3126 3128 3129 3129 3130 3131 3131 3131 3131 3133 3133 3132 3132 3132 3129 3127 3129 3131 3131 3132 3132 3131 3130 3131 3133 3135 3136 3138 3140 3142 3144 3145
3094 3094 3094 3093 3093 3093 3093 3093 3094 3094 3094 3094 3095 3095 3096 3096 3096 3096 3096 3097 3097 3097 3098 3099 3099 3099 3100 3100 3101 3102 3102 3103 3103 3104 3105 3106 3106 3106 3106 3107 3108 3110 3112 3115 3117 3118 3119 3120 3120 3120 3119 3117 3117 3119 3120 3122 3123 3124 3125 3127 3128 3129 3129 3129 3130 3130 3131 3132 3131 3131 3131 3129 3129 3130 3132 3132 3132 3131 3131 3131 3133 3134 3136 3138 3140 3142 3143 3145
3093 3093 3093 3093 3093 3092 3092 3092 3092 3093 3093 3094 3094 3094 3095 3096 3096 3096 3096 3096 3096 3097 3097 3098 3099 3099 3100 3100 3101 3102 3102 3102 3103 3104 3104 3105 3106 3105 3104 3104 3106 3107 3109 3112 3115 3117 3118 3118 3118 3119 3119 3118 3118 3119 3121 3122 3122 3122 3123 3124 3126 3127 3127 3127 3128 3128 3131 3132 3130 3128 3129 3130 3130 3131 3131 3132 3132 3131 3131 3131 3132 3134 3136 3137 3139 3141 3143 3144
3092 3092 3092 3092 3092 3092 3092 3092 3091 3091 3092 3092 3093 3093 3094 3095 3095 3095 3095 3095 3095 3096 3097 3098 3098 3098 3099 3099 3100 3101 3102 3102 3103 3103 3104 3104 3105 3105 3104 3103 3104 3105 3107 3110 3113 3115 3116 3116 3116 3117 3118 3118 3119 3119 3120 3122 3122 3122 3122 3123 3124 3125 3125 3125 3126 3127 3130 3131 3129 3128 3128 3128 3130 3131 3131 3131 3131 3131 3131 3132 3133 3134 3136 3137 3139 3141 3142 3144
3091 3090 3090 3090 3090 3090 3090 3090 3090 3091 3091 3091 3092 3092 3093 3094 3094 3094 3094 3094 3095 3095 3096 3097 3097 3097 3098 3099 3100 3101 3101 3101 3102 3102 3102 3103 3104 3105 3105 3105 3104 3105 3106 3109 3111 3112 3114 3114 3114 3116 3116 3116 3117 3118 3119 3120 3121 3121 3121 3122 3122 3123 3123 3124 3125 3125 3127 3128 3128 3129 3127 3126 3128 3130 3129 3130 3131 3131 3131 3132 3133 3134 3136 3137 3138 3140 3141 3143
3089 3089 3089 3089 3089 3088 3088 3089 3089 3089 3090 3090 3091 3091 3091 3092 3092 3093 3093 3094 3094 3094 3094 3095 3095 3095 3097 3098 3098 3099 3099 3100 3100 3101 3101 3102 3103 3104 3105 3105 3106 3105 3106 3107 3109 3110 3111 3112 3112 3114 3115 3114 3115 3116 3117 3118 3119 3119 3119 3119 3120 3121 3121 3122 3122 3123 3124 3125 3126 3127 3126 3124 3125 3127 3128 3129 3130 3131 3131 3131 3132 3134 3136 3137 3138 3139 3141 3142
3088 3088 3087 3087 3087 3087 3087 3087 3087 3088 3089 3089 3090 3090 3090 3090 3091 3092 3092 3093 3093 3093 3093 3093 3094 3094 3096 3096 3096 3097 3098 3098 3099 3099 3100 3101 3102 3102 3103 3104 3104 3105 3105 3106 3107 3108 3109 3110 3111 3112 3112 3111 3112 3114 3115 3116 3117 3117 3116 3116 3117 3118 3118 3119 3119 3120 3121 3122 3123 3125 3124 3123 3123 3126 3127 3128 3129 3130 3130 3131 3131 3133 3135 3137 3137 3139 3140 3142
3086 3086 3086 3086 3086 3085 3086 3086 3086 3087 3088 3087 3087 3088 3088 3089 3090 3090 3091 3092 3092 3092 3092 3092 3093 3094 3095 3095 3095 3095 3096 3097 3098 3099 3099 3100 3101 3101 3102 3102 3102 3103 3104 3105 3105 3106 3107 3108 3109 3110 3110 3108 3110 3112 3113 3114 3114 3112 3112 3114 3115 3116 3116 3117 3117 3118 3118 3120 3121 3122 3123 3123 3123 3125 3127 3128 3129 3129 3130 3131 3130 3131 3133 3135 3136 3138 3140 3141